[[{"header":{"parameterUnit":"m.s-1","parameterCategory":1,"la1":30.2991,"la2":30.254,"lo1":-89.0895,"lo2":-89.0444,"dy":0.0017,"dx":0.0017,"nx":28,"ny":28,"refTime":"2023-08-04T21:00:00:Z","depth":0,"parameterNumber":2,"parameterNumberName":"U-component_of_WINDS"},"data":[0,0,0,0,0,0,0,0,0,0,0,0,0,0,0,0,0,0,0,0,0,0,0,0,0,0,0,0,0,0,0,0,0,0,0,0,0,0,0,0,0,0,0,0,0,0,0,0,0,0,0,0,0,0,0,0,0,0,5.6643,5.6645,0,5.681,5.6812,5.6814,5.6747,5.6743,5.6739,5.6735,5.6909,5.6917,5.6925,0,0,0,0,0,0,0,0,0,0,0,0,0,5.6267,5.6274,5.6643,5.6645,5.6647,5.681,5.6812,5.6814,5.6747,5.6743,5.6738,5.6733,5.6906,5.6916,5.6926,0,0,0,0,0,0,0,0,0,0,0,0,0,5.6432,5.6277,5.6642,5.6633,5.6634,5.6809,5.6812,5.6815,5.6748,5.6742,5.6736,5.6731,5.6903,5.6915,5.6927,5.7123,0,0,5.6965,5.6971,0,0,0,0,0,0,0,0,5.6423,5.6446,5.6632,5.6634,5.6635,5.6751,5.6743,5.6918,5.675,5.6705,5.6735,5.6728,5.6861,5.6877,5.6921,5.7131,5.7138,5.6966,5.6974,5.6979,5.6983,0,0,0,0,0,0,0,5.6411,5.6438,5.6709,5.6635,5.6637,5.6621,5.6638,5.6776,5.6814,5.6708,5.6704,5.6725,5.6861,5.6909,5.6925,5.7141,5.6966,5.6977,5.6985,5.699,5.7518,5.7524,0,0,0,0,0,0,5.6399,5.6429,5.6704,5.6714,5.6512,5.6633,5.6652,5.672,5.6813,5.6821,5.6729,5.6721,5.6891,5.691,5.6931,5.7165,5.6979,5.6991,5.6998,5.7511,5.7519,5.7527,0,0,0,0,0,0,5.6392,5.6424,5.6697,5.6571,5.6604,5.6645,5.6723,5.6727,5.6775,5.6829,5.6835,5.6772,5.6887,5.6913,5.7075,5.717,5.6996,5.7008,5.7504,5.7514,5.7523,5.7635,0,0,0,0,0,0,5.6381,5.6422,5.6496,5.6573,5.6611,5.6838,5.6729,5.6734,5.6796,5.6787,5.687,5.6878,5.6885,5.7057,5.7087,5.7184,5.7017,5.7495,5.7508,5.752,5.7623,5.7647,5.7668,0,0,0,0,0,5.6368,5.6522,5.65,5.6534,5.6704,5.6844,5.6866,5.6869,5.6804,5.6879,5.6914,5.6876,5.7155,5.7074,5.7108,5.7209,5.7489,5.7505,5.7519,5.7612,5.7642,5.7667,0,0,0,0,0,0,5.6456,5.6531,5.6509,5.6692,5.6762,5.6832,5.6927,5.6901,5.6991,5.6979,5.698,5.6999,5.7166,5.7204,5.7113,5.7403,5.7312,5.7335,5.7372,5.7401,5.7423,5.741,5.7028,0,0,0,0,0,5.6497,5.6603,5.6663,5.6819,5.6855,5.6885,5.6946,5.6943,5.7016,5.7045,5.7091,5.7164,5.7268,5.7337,5.7435,5.7628,5.7645,5.7715,5.7737,5.7756,5.7775,5.7879,5.791,5.7575,5.7575,5.7575,0,0,5.6582,5.6636,5.6703,5.6838,5.6892,5.7002,5.6911,5.7031,5.7113,5.7064,5.7218,5.7256,5.7337,5.7515,5.7595,5.7552,5.7871,5.7775,5.7789,5.7798,5.7897,5.7929,5.7957,5.7585,5.7583,5.7582,0,0,5.6793,5.6846,5.698,5.7036,5.7118,5.7137,5.717,5.7245,5.7267,5.7422,5.7387,5.7485,5.7664,5.7723,5.7777,5.8011,5.7979,5.8043,5.8161,5.8263,5.8289,5.8312,5.8395,5.8425,5.8062,5.8063,5.8063,0,5.6889,5.7053,5.7053,5.7177,5.7237,5.7197,5.7333,5.7388,5.7499,5.7541,5.749,5.7714,5.7766,5.7957,5.8014,5.8059,5.8096,5.8033,5.8285,5.8309,5.8331,5.8409,5.844,5.807,5.8069,5.8068,5.8068,0,5.7166,5.7281,5.738,5.7487,5.7558,5.7688,5.7708,5.7781,5.7772,5.7796,5.7955,5.8016,5.8126,5.8171,5.8164,5.8361,5.8331,5.8283,5.8192,5.837,5.8443,5.8474,5.808,5.8077,5.8075,5.8074,0,0,5.7437,5.7542,5.7579,5.7626,5.7715,5.7803,5.7931,5.8038,5.81,5.8178,5.8285,5.8438,5.8393,5.8454,5.8453,5.8543,5.8723,5.8483,5.8485,5.8525,5.8943,5.8978,5.9013,5.8703,5.8708,5.8713,5.8936,0,5.7655,5.7878,5.7882,5.8087,5.8192,5.8155,5.8267,5.8333,5.836,5.8453,5.8483,5.8591,5.8525,5.8561,5.8648,5.8683,5.8807,5.8667,5.8802,5.8807,5.8781,5.9052,5.9089,5.9296,5.8965,5.897,5.8973,0,5.7938,5.8024,5.8239,5.8311,5.8355,5.8455,5.8553,5.8643,5.8718,5.8731,5.8799,5.8784,5.8915,5.8821,5.9001,5.8905,5.8961,5.8987,5.8995,5.9007,5.89,5.907,5.9362,5.9393,5.9019,5.9016,5.9012,0,5.8112,5.8282,5.8433,5.8475,5.8563,5.8634,5.8674,5.8743,5.8807,5.8893,5.8934,5.9035,5.909,5.9168,5.9181,5.9111,5.9362,5.9269,5.9376,5.9376,5.9429,5.9426,5.9734,5.9468,5.9468,5.9467,5.9466,0,5.8354,5.8487,5.8512,5.8605,5.8752,5.8756,5.8903,5.8937,5.8999,5.9098,5.9073,5.9166,5.9179,5.9276,5.9287,5.9434,5.9459,5.9473,5.9475,5.9475,5.9473,5.9511,5.9496,5.9475,5.9473,5.9472,5.947,0,5.8574,5.8596,5.8757,5.8827,5.8848,5.8954,5.9014,5.9103,5.9126,5.9252,5.9282,5.9319,5.9432,5.9453,5.9587,5.9594,5.9769,5.9757,5.9744,5.9742,5.9847,5.9837,6.019,6.0236,5.9941,5.9944,5.9946,0,5.8725,5.8827,5.8907,5.8971,5.9015,5.9118,5.9183,5.9191,5.9259,5.9351,5.9429,5.9539,5.9627,5.9809,5.9848,5.995,5.9939,6.0056,5.9954,5.9951,5.9939,5.9933,5.9942,6.0075,6.0078,6.0081,6.0083,0,5.8993,5.8998,5.9092,5.919,5.9267,5.9345,5.9419,5.9473,5.949,5.9569,5.9683,5.9751,5.9887,5.9996,6.0097,6.0139,6.0115,6.0115,6.0145,6.0145,6.0133,6.014,5.9795,6.0106,6.0104,6.0102,6.0101,6.01,5.9182,5.927,5.934,5.9445,5.9501,5.957,5.9657,5.9691,5.9786,5.9896,5.9896,6.0021,6.0093,6.0226,6.0275,6.0373,6.0335,6.0379,6.039,6.0401,6.041,6.0119,6.0391,6.0391,6.039,6.039,6.0389,0,5.9447,5.949,5.9587,5.969,5.9772,5.9741,5.9821,5.9892,6.0002,6.0071,6.0158,6.0289,6.0395,6.0443,6.0547,6.0617,6.0608,6.0644,6.0638,6.0648,6.0438,6.0401,6.0649,6.0649,6.0649,6.0649,6.0649,6.0649,5.9594,5.974,5.9755,5.9929,5.9971,6.0093,6.0141,6.0205,6.0259,6.0406,6.0494,6.0524,6.0585,6.0693,6.0789,6.08,6.0839,6.088,6.0886,6.0689,6.0663,6.0637,6.0602,6.0889,6.0889,6.1088,6.109,6.1091]},{"header":{"parameterUnit":"m.s-1","parameterCategory":1,"la1":30.2991,"la2":30.254,"lo1":-89.0895,"lo2":-89.0444,"dy":0.0017,"dx":0.0017,"nx":28,"ny":28,"refTime":"2023-08-04T21:00:00:Z","depth":0,"parameterNumber":3,"parameterNumberName":"V-component_of_WINDS"},"data":[0,0,0,0,0,0,0,0,0,0,0,0,0,0,0,0,0,0,0,0,0,0,0,0,0,0,0,0,0,0,0,0,0,0,0,0,0,0,0,0,0,0,0,0,0,0,0,0,0,0,0,0,0,0,0,0,0,0,0.5179,0.5179,0,0.5237,0.5238,0.5238,0.5248,0.5247,0.5247,0.5246,0.5307,0.5309,0.5311,0,0,0,0,0,0,0,0,0,0,0,0,0,0.5075,0.5077,0.5179,0.5179,0.518,0.5237,0.5238,0.5239,0.5248,0.5247,0.5247,0.5246,0.5306,0.5309,0.5311,0,0,0,0,0,0,0,0,0,0,0,0,0,0.5126,0.5078,0.5179,0.5192,0.5193,0.5237,0.5238,0.5239,0.5248,0.5247,0.5247,0.5246,0.5305,0.5308,0.5311,0.5346,0,0,0.5321,0.5322,0,0,0,0,0,0,0,0,0.5123,0.5129,0.5189,0.5191,0.5193,0.5234,0.5224,0.5275,0.5248,0.5227,0.5246,0.5245,0.5283,0.5288,0.5301,0.5349,0.5351,0.5321,0.5323,0.5325,0.5325,0,0,0,0,0,0,0,0.5119,0.5127,0.5202,0.519,0.5192,0.5195,0.5201,0.5233,0.5259,0.5229,0.523,0.5237,0.5284,0.5298,0.5302,0.5352,0.5321,0.5324,0.5326,0.5327,0.5431,0.5432,0,0,0,0,0,0,0.5113,0.5124,0.52,0.5204,0.5155,0.5197,0.5204,0.5222,0.5259,0.5264,0.5237,0.5237,0.5293,0.5299,0.5305,0.5348,0.5324,0.5327,0.5329,0.543,0.5431,0.5432,0,0,0,0,0,0,0.5111,0.512,0.5198,0.5164,0.5174,0.52,0.522,0.5223,0.5237,0.5265,0.5269,0.5246,0.5293,0.53,0.5336,0.535,0.5329,0.5332,0.5429,0.5431,0.5432,0.5434,0,0,0,0,0,0,0.5108,0.5119,0.5133,0.5164,0.5176,0.5228,0.522,0.5225,0.5242,0.5242,0.5275,0.5279,0.5293,0.5331,0.5339,0.5354,0.5334,0.5428,0.543,0.5431,0.5432,0.5435,0.5437,0,0,0,0,0,0.5104,0.5131,0.5133,0.5143,0.5193,0.5228,0.5235,0.525,0.5243,0.5257,0.5275,0.5278,0.5347,0.5334,0.5343,0.5359,0.5427,0.5429,0.5431,0.5431,0.5434,0.5437,0,0,0,0,0,0,0.5101,0.5136,0.5138,0.5176,0.5199,0.523,0.5248,0.5252,0.5278,0.5277,0.5294,0.5301,0.5336,0.5351,0.5337,0.5395,0.5386,0.539,0.5384,0.5387,0.5389,0.5385,0.5337,0,0,0,0,0,0.5105,0.513,0.5159,0.5189,0.5201,0.5222,0.5238,0.5247,0.5272,0.5282,0.5302,0.5326,0.5353,0.5371,0.5397,0.5434,0.5441,0.545,0.5452,0.5454,0.5457,0.5478,0.5482,0.5439,0.5439,0.5439,0,0,0.5112,0.5134,0.515,0.5189,0.5208,0.5234,0.523,0.5258,0.5278,0.5286,0.5321,0.5336,0.5364,0.5401,0.5418,0.5415,0.547,0.5456,0.5457,0.546,0.548,0.5484,0.5488,0.544,0.544,0.544,0,0,0.514,0.5159,0.5187,0.5206,0.5234,0.5248,0.5254,0.5285,0.5295,0.533,0.5336,0.536,0.5406,0.5425,0.5441,0.5475,0.5479,0.5483,0.5495,0.5515,0.5519,0.5522,0.5534,0.5538,0.5486,0.5486,0.5486,0,0.5146,0.5186,0.52,0.5228,0.5245,0.5253,0.5281,0.5298,0.5334,0.5346,0.5342,0.5399,0.5418,0.5459,0.5468,0.548,0.5488,0.548,0.5517,0.552,0.5523,0.5535,0.554,0.5487,0.5487,0.5487,0.5487,0,0.5192,0.522,0.5238,0.5272,0.5292,0.5319,0.5337,0.5355,0.5362,0.5376,0.5412,0.5435,0.5466,0.5476,0.5483,0.5518,0.5515,0.5514,0.5506,0.5528,0.5539,0.5544,0.5487,0.5487,0.5487,0.5487,0,0,0.5221,0.5261,0.5268,0.5284,0.5315,0.5337,0.5364,0.5394,0.5409,0.5433,0.5457,0.5495,0.5494,0.5512,0.5521,0.5539,0.5564,0.5535,0.5536,0.554,0.5604,0.5605,0.561,0.5566,0.5567,0.5568,0.5601,0,0.5253,0.5302,0.5315,0.5358,0.5383,0.539,0.5414,0.5436,0.545,0.5474,0.5489,0.5516,0.5512,0.5523,0.554,0.5557,0.5577,0.5555,0.5589,0.559,0.5583,0.5616,0.5618,0.5648,0.5606,0.5607,0.5607,0,0.5297,0.5321,0.5366,0.5394,0.5405,0.5427,0.5455,0.5477,0.5502,0.5511,0.553,0.5538,0.5567,0.5557,0.5597,0.5581,0.5596,0.5606,0.5608,0.5612,0.5601,0.5622,0.5658,0.5663,0.5615,0.5614,0.5613,0,0.5313,0.5358,0.539,0.5403,0.5436,0.5451,0.5466,0.549,0.5507,0.5531,0.5542,0.557,0.5585,0.5606,0.5621,0.5612,0.566,0.5651,0.5668,0.5668,0.5678,0.5678,0.5718,0.5687,0.5687,0.5686,0.5686,0,0.5348,0.5375,0.5398,0.5418,0.5448,0.5463,0.5493,0.5507,0.5528,0.5551,0.5559,0.558,0.5598,0.5622,0.5633,0.5665,0.5672,0.568,0.5682,0.5679,0.5678,0.569,0.5688,0.5688,0.5687,0.5687,0.5687,0,0.5372,0.5388,0.5424,0.5452,0.546,0.5481,0.5506,0.5525,0.5539,0.5568,0.5575,0.5597,0.5625,0.5641,0.5677,0.5684,0.5719,0.5721,0.5711,0.5713,0.5729,0.5727,0.5779,0.5786,0.5749,0.5749,0.5749,0,0.5393,0.5414,0.5445,0.546,0.5475,0.55,0.5518,0.5532,0.555,0.5579,0.5595,0.5624,0.5648,0.5692,0.5711,0.5738,0.5741,0.5757,0.5745,0.5741,0.5741,0.574,0.5742,0.5759,0.5759,0.576,0.576,0,0.5429,0.5436,0.5461,0.5488,0.5508,0.553,0.5552,0.5565,0.5583,0.5602,0.5631,0.565,0.5686,0.5714,0.5742,0.5757,0.5762,0.5763,0.5769,0.5766,0.576,0.5764,0.5717,0.5762,0.5762,0.5762,0.5762,0.5762,0.5453,0.5472,0.5496,0.5523,0.5541,0.5561,0.5581,0.5597,0.5621,0.5651,0.5658,0.5689,0.5712,0.5751,0.5766,0.579,0.5787,0.5795,0.5797,0.5799,0.58,0.5755,0.5795,0.5795,0.5795,0.5795,0.5795,0,0.549,0.5506,0.553,0.5561,0.5582,0.5583,0.5608,0.5625,0.5652,0.5673,0.5696,0.5729,0.5756,0.5776,0.5804,0.5819,0.5822,0.5826,0.5826,0.5829,0.5801,0.5793,0.5823,0.5823,0.5823,0.5823,0.5823,0.5823,0.5512,0.5544,0.5553,0.5594,0.561,0.5639,0.5653,0.5672,0.5689,0.5725,0.5748,0.5761,0.5782,0.5811,0.5836,0.5841,0.5851,0.5855,0.586,0.5834,0.5831,0.5828,0.5821,0.5857,0.5857,0.5887,0.5887,0.5887]}]]